| time (UTC) | temp F | wind direction | speed knots | gust knots | rain 1hr in | rain 24hr in | rain mn in | humidity % | barometer mb |
| 20260507044142 | 67 | 157 | 2.6 | 4.3 | 0.00 | 0.00 | 0.00 | ||
| 20260507043739 | 66 | 157 | 1.7 | 3.5 | 0.00 | 0.00 | 0.00 | ||
| 20260507043338 | 65 | 154 | 2.6 | 6.1 | 0.00 | 0.00 | 0.00 | ||
| 20260507042937 | 64 | 135 | 2.6 | 3.5 | 0.00 | 0.00 | 0.00 | ||
| 20260507042535 | 64 | 135 | 2.6 | 3.5 | 0.00 | 0.00 | 0.00 | ||
| 20260507042126 | 64 | 146 | 5.2 | 7.8 | 0.00 | 0.00 | 0.00 | ||
| 20260507041724 | 64 | 135 | 1.7 | 4.3 | 0.00 | 0.00 | 0.00 | ||
| 20260507041323 | 63 | 135 | 2.6 | 3.5 | 0.00 | 0.00 | 0.00 | ||
| 20260507040922 | 63 | 202 | 3.5 | 5.2 | 0.00 | 0.00 | 0.00 | ||
| 20260507040519 | 61 | 67 | 0.9 | 1.7 | 0.00 | 0.00 | 0.00 | ||
| 20260507040118 | 61 | 67 | 0.0 | 0.9 | 0.00 | 0.00 | 0.00 | ||
| 20260507035716 | 61 | 67 | 0.0 | 0.0 | 0.00 | 0.00 | 0.00 | ||
| 20260507035315 | 61 | 67 | 1.7 | 3.5 | 0.00 | 0.00 | 0.00 | ||
| 20260507034913 | 61 | 21 | 4.3 | 6.1 | 0.00 | 0.00 | 0.00 | ||
| 20260507034511 | 61 | 7 | 3.5 | 4.3 | 0.00 | 0.00 | 0.00 | ||
| 20260507034103 | 61 | 45 | 3.5 | 5.2 | 0.00 | 0.00 | 0.00 | ||
| 20260507033701 | 61 | 45 | 3.5 | 5.2 | 0.00 | 0.00 | 0.00 | ||
| 20260507033300 | 61 | 29 | 6.1 | 7.0 | 0.00 | 0.00 | 0.00 | ||
| 20260507032858 | 61 | 45 | 1.7 | 3.5 | 0.00 | 0.00 | 0.00 | ||
| 20260507032456 | 61 | 41 | 2.6 | 6.1 | 0.00 | 0.00 | 0.00 | ||
| 20260507032055 | 61 | 14 | 4.3 | 7.0 | 0.00 | 0.00 | 0.00 | ||
| 20260507031653 | 61 | 0 | 4.3 | 6.1 | 0.00 | 0.00 | 0.00 | ||
| 20260507031251 | 61 | 135 | 1.7 | 3.5 | 0.00 | 0.00 | 0.00 | ||
| 20260507030850 | 61 | 135 | 2.6 | 3.5 | 0.00 | 0.00 | 0.00 | ||
| 20260507030448 | 62 | 135 | 0.9 | 2.6 | 0.00 | 0.00 | 0.00 | ||
| 20260507030040 | 62 | 135 | 0.0 | 0.0 | 0.00 | 0.00 | 0.00 | ||
| 20260507025638 | 62 | 135 | 0.0 | 0.9 | 0.00 | 0.00 | 0.00 | ||
| 20260507025236 | 63 | 135 | 1.7 | 3.5 | 0.00 | 0.00 | 0.00 | ||
| 20260507024835 | 63 | 135 | 2.6 | 5.2 | 0.00 | 0.00 | 0.00 | ||
| 20260507024434 | 64 | 145 | 2.6 | 3.5 | 0.00 | 0.00 | 0.00 | ||
| 20260507024031 | 64 | 157 | 0.9 | 3.5 | 0.00 | 0.00 | 0.00 | ||
| 20260507023630 | 65 | 157 | 1.7 | 3.5 | 0.00 | 0.00 | 0.00 | ||
| 20260507023228 | 65 | 157 | 3.5 | 5.2 | 0.00 | 0.00 | 0.00 | ||
| 20260507022828 | 65 | 157 | 2.6 | 5.2 | 0.00 | 0.00 | 0.00 | ||
| 20260507022425 | 65 | 157 | 2.6 | 5.2 | 0.00 | 0.00 | 0.00 | ||
| 20260507022016 | 65 | 151 | 4.3 | 7.8 | 0.00 | 0.00 | 0.00 | ||
| 20260507021614 | 65 | 137 | 2.6 | 6.1 | 0.00 | 0.00 | 0.00 | ||
| 20260507021213 | 65 | 151 | 3.5 | 7.0 | 0.00 | 0.00 | 0.00 | ||
| 20260507020812 | 65 | 136 | 3.5 | 6.1 | 0.00 | 0.00 | 0.00 | ||
| 20260507020409 | 65 | 157 | 2.6 | 6.1 | 0.00 | 0.00 | 0.00 | ||
| 20260507020009 | 65 | 153 | 2.6 | 5.2 | 0.00 | 0.00 | 0.00 | ||
| 20260507015606 | 65 | 152 | 3.5 | 7.0 | 0.00 | 0.00 | 0.00 | ||
| 20260507015205 | 65 | 157 | 4.3 | 7.0 | 0.00 | 0.00 | 0.00 | ||
| 20260507014803 | 65 | 157 | 3.5 | 7.8 | 0.00 | 0.00 | 0.00 | ||
| 20260507014401 | 65 | 158 | 5.2 | 7.8 | 0.00 | 0.00 | 0.00 | ||
| 20260507013954 | 65 | 167 | 7.8 | 10.4 | 0.00 | 0.00 | 0.00 | ||
| 20260507013552 | 66 | 171 | 8.7 | 12.2 | 0.00 | 0.00 | 0.00 | ||
| 20260507013150 | 66 | 172 | 7.8 | 11.3 | 0.00 | 0.00 | 0.00 | ||
| 20260507012749 | 66 | 175 | 6.1 | 8.7 | 0.00 | 0.00 | 0.00 | ||
| 20260507012347 | 66 | 186 | 12.2 | 16.5 | 0.00 | 0.00 | 0.00 | ||
| 20260507011946 | 66 | 182 | 12.2 | 17.4 | 0.00 | 0.00 | 0.00 | ||
| 20260507011544 | 66 | 176 | 9.6 | 13.0 | 0.00 | 0.00 | 0.00 | ||
| 20260507011142 | 66 | 164 | 8.7 | 10.4 | 0.00 | 0.00 | 0.00 | ||
| 20260507010741 | 66 | 182 | 9.6 | 13.0 | 0.00 | 0.00 | 0.00 | ||
| 20260507010339 | 66 | 182 | 10.4 | 13.9 | 0.00 | 0.00 | 0.00 | ||
| 20260507005931 | 66 | 199 | 10.4 | 14.8 | 0.00 | 0.00 | 0.00 | ||
| 20260507005528 | 66 | 200 | 12.2 | 19.1 | 0.00 | 0.00 | 0.00 | ||
| 20260507005127 | 66 | 197 | 7.0 | 9.6 | 0.00 | 0.00 | 0.00 | ||
| 20260507004725 | 66 | 203 | 6.1 | 9.6 | 0.00 | 0.00 | 0.00 | ||
| 20260507004323 | 67 | 227 | 4.3 | 7.8 | 0.00 | 0.00 | 0.00 | ||
| 20260507003920 | 66 | 194 | 7.0 | 11.3 | 0.00 | 0.00 | 0.00 | ||
| 20260507003519 | 66 | 162 | 6.1 | 7.0 | 0.00 | 0.00 | 0.00 | ||
| 20260507003118 | 66 | 174 | 7.0 | 10.4 | 0.00 | 0.00 | 0.00 | ||
| 20260507002717 | 66 | 186 | 10.4 | 19.1 | 0.00 | 0.00 | 0.00 | ||
| 20260507002313 | 66 | 163 | 9.6 | 13.9 | 0.00 | 0.00 | 0.00 | ||
| 20260507001906 | 66 | 157 | 10.4 | 14.8 | 0.00 | 0.00 | 0.00 | ||
| 20260507001504 | 66 | 152 | 8.7 | 13.0 | 0.00 | 0.00 | 0.00 | ||
| 20260507001103 | 66 | 148 | 7.8 | 11.3 | 0.00 | 0.00 | 0.00 | ||
| 20260507000702 | 67 | 158 | 7.0 | 10.4 | 0.00 | 0.00 | 0.00 | ||
| 20260507000259 | 67 | 178 | 7.0 | 10.4 | 0.00 | 0.00 | 0.00 | ||
| 20260506235858 | 67 | 200 | 7.8 | 10.4 | 0.00 | 0.00 | 0.00 | ||
| 20260506235456 | 68 | 203 | 9.6 | 15.6 | 0.00 | 0.00 | 0.00 | ||
| 20260506235055 | 67 | 181 | 7.8 | 13.9 | 0.00 | 0.00 | 0.00 | ||
| 20260506234653 | 67 | 198 | 6.1 | 9.6 | 0.00 | 0.00 | 0.00 | ||
| 20260506234251 | 67 | 196 | 7.0 | 12.2 | 0.00 | 0.00 | 0.00 | ||
| 20260506233843 | 68 | 202 | 3.5 | 6.1 | 0.00 | 0.00 | 0.00 | ||
| 20260506233441 | 68 | 168 | 7.0 | 8.7 | 0.00 | 0.00 | 0.00 | ||
| 20260506233039 | 68 | 194 | 8.7 | 16.5 | 0.00 | 0.00 | 0.00 | ||
| 20260506232638 | 68 | 198 | 6.1 | 8.7 | 0.00 | 0.00 | 0.00 | ||
| 20260506232236 | 68 | 202 | 4.3 | 7.0 | 0.00 | 0.00 | 0.00 | ||
| 20260506231835 | 68 | 188 | 2.6 | 4.3 | 0.00 | 0.00 | 0.00 | ||
| 20260506231432 | 68 | 200 | 5.2 | 7.0 | 0.00 | 0.00 | 0.00 | ||
| 20260506231031 | 68 | 196 | 6.1 | 9.6 | 0.00 | 0.00 | 0.00 | ||
| 20260506230630 | 68 | 200 | 4.3 | 6.1 | 0.00 | 0.00 | 0.00 | ||
| 20260506230229 | 68 | 164 | 6.1 | 7.8 | 0.00 | 0.00 | 0.00 | ||
| 20260506225821 | 68 | 163 | 5.2 | 7.8 | 0.00 | 0.00 | 0.00 | ||
| 20260506225418 | 68 | 155 | 7.8 | 10.4 | 0.00 | 0.00 | 0.00 | ||
| 20260506225017 | 68 | 176 | 7.8 | 9.6 | 0.00 | 0.00 | 0.00 | ||
| 20260506224616 | 68 | 173 | 7.8 | 10.4 | 0.00 | 0.00 | 0.00 | ||
| 20260506224214 | 68 | 187 | 7.0 | 8.7 | 0.00 | 0.00 | 0.00 | ||
| 20260506223812 | 68 | 182 | 8.7 | 12.2 | 0.00 | 0.00 | 0.00 | ||
| 20260506223410 | 68 | 191 | 8.7 | 13.0 | 0.00 | 0.00 | 0.00 | ||
| 20260506223009 | 68 | 165 | 10.4 | 12.2 | 0.00 | 0.00 | 0.00 | ||
| 20260506222608 | 68 | 172 | 13.0 | 16.5 | 0.00 | 0.00 | 0.00 | ||
| 20260506222205 | 68 | 168 | 8.7 | 13.0 | 0.00 | 0.00 | 0.00 | ||
| 20260506221757 | 68 | 163 | 11.3 | 15.6 | 0.00 | 0.00 | 0.00 | ||
| 20260506221355 | 68 | 165 | 11.3 | 15.6 | 0.00 | 0.00 | 0.00 | ||
| 20260506220954 | 68 | 162 | 7.8 | 11.3 | 0.00 | 0.00 | 0.00 | ||
| 20260506220552 | 68 | 157 | 8.7 | 15.6 | 0.00 | 0.00 | 0.00 | ||
| 20260506220150 | 68 | 149 | 9.6 | 13.9 | 0.00 | 0.00 | 0.00 | ||
| 20260506215749 | 68 | 178 | 11.3 | 15.6 | 0.00 | 0.00 | 0.00 | ||
| 20260506215347 | 69 | 175 | 7.0 | 12.2 | 0.00 | 0.00 | 0.00 | ||
| 20260506214946 | 69 | 201 | 6.1 | 10.4 | 0.00 | 0.00 | 0.00 | ||
| 20260506214617 | 69 | 185 | 7.0 | 10.4 | 0.00 | 0.00 | 0.00 | ||
| 20260506214544 | 69 | 185 | 7.0 | 10.4 | 0.00 | 0.00 | 0.00 | ||
| 20260506214142 | 69 | 187 | 7.8 | 10.4 | 0.00 | 0.00 | 0.00 | ||
| 20260506213734 | 69 | 195 | 5.2 | 9.6 | 0.00 | 0.00 | 0.00 | ||
| 20260506213333 | 69 | 182 | 7.0 | 10.4 | 0.00 | 0.00 | 0.00 | ||
| 20260506212930 | 69 | 177 | 9.6 | 13.9 | 0.00 | 0.00 | 0.00 | ||
| 20260506212529 | 69 | 197 | 9.6 | 13.0 | 0.00 | 0.00 | 0.00 | ||
| 20260506212128 | 69 | 170 | 8.7 | 12.2 | 0.00 | 0.00 | 0.00 | ||
| 20260506211727 | 69 | 162 | 9.6 | 12.2 | 0.00 | 0.00 | 0.00 | ||
| 20260506210923 | 70 | 177 | 9.6 | 16.5 | 0.00 | 0.00 | 0.00 | ||
| 20260506210522 | 70 | 160 | 5.2 | 7.8 | 0.00 | 0.00 | 0.00 | ||
| 20260506210120 | 70 | 180 | 6.1 | 8.7 | 0.00 | 0.00 | 0.00 | ||
| 20260506205711 | 70 | 175 | 8.7 | 12.2 | 0.00 | 0.00 | 0.00 | ||
| 20260506204908 | 70 | 180 | 7.8 | 10.4 | 0.00 | 0.00 | 0.00 | ||
| 20260506204507 | 70 | 187 | 7.8 | 10.4 | 0.00 | 0.00 | 0.00 | ||
| 20260506204105 | 70 | 185 | 9.6 | 13.9 | 0.00 | 0.00 | 0.00 | ||
| 20260506203703 | 70 | 181 | 13.9 | 23.5 | 0.00 | 0.00 | 0.00 | ||
| 20260506203301 | 70 | 172 | 10.4 | 13.0 | 0.00 | 0.00 | 0.00 | ||
| 20260506202900 | 70 | 173 | 12.2 | 17.4 | 0.00 | 0.00 | 0.00 | ||
| 20260506202459 | 70 | 170 | 11.3 | 14.8 | 0.00 | 0.00 | 0.00 | ||
| 20260506202056 | 70 | 170 | 9.6 | 13.9 | 0.00 | 0.00 | 0.00 | ||
| 20260506201648 | 70 | 192 | 9.6 | 13.0 | 0.00 | 0.00 | 0.00 | ||
| 20260506201246 | 70 | 181 | 13.0 | 17.4 | 0.00 | 0.00 | 0.00 | ||
| 20260506200845 | 70 | 172 | 13.0 | 18.2 | 0.00 | 0.00 | 0.00 | ||
| 20260506200443 | 70 | 185 | 8.7 | 12.2 | 0.00 | 0.00 | 0.00 | ||
| 20260506200041 | 70 | 178 | 11.3 | 15.6 | 0.00 | 0.00 | 0.00 | ||
| 20260506195640 | 71 | 188 | 9.6 | 13.9 | 0.00 | 0.00 | 0.00 | ||
| 20260506195239 | 71 | 186 | 9.6 | 13.9 | 0.00 | 0.00 | 0.00 | ||
| 20260506194837 | 70 | 186 | 8.7 | 14.8 | 0.00 | 0.00 | 0.00 | ||
| 20260506194436 | 71 | 189 | 9.6 | 13.9 | 0.00 | 0.00 | 0.00 | ||
| 20260506193626 | 71 | 196 | 12.2 | 17.4 | 0.00 | 0.00 | 0.00 | ||
| 20260506193224 | 71 | 188 | 11.3 | 15.6 | 0.00 | 0.00 | 0.00 | ||
| 20260506192822 | 70 | 177 | 8.7 | 14.8 | 0.00 | 0.00 | 0.00 | ||
| 20260506192421 | 70 | 164 | 5.2 | 10.4 | 0.00 | 0.00 | 0.00 | ||
| 20260506192019 | 71 | 157 | 5.2 | 7.8 | 0.00 | 0.00 | 0.00 | ||
| 20260506191618 | 71 | 182 | 7.8 | 10.4 | 0.00 | 0.00 | 0.00 | ||
| 20260506191215 | 70 | 144 | 6.1 | 10.4 | 0.00 | 0.00 | 0.00 | ||
| 20260506190813 | 70 | 148 | 7.0 | 9.6 | 0.00 | 0.00 | 0.00 | ||
| 20260506190412 | 70 | 120 | 3.5 | 6.1 | 0.00 | 0.00 | 0.00 | ||
| 20260506190010 | 70 | 137 | 3.5 | 7.8 | 0.00 | 0.00 | 0.00 | ||
| 20260506185601 | 71 | 163 | 3.5 | 6.1 | 0.00 | 0.00 | 0.00 | ||
| 20260506185159 | 71 | 183 | 4.3 | 6.1 | 0.00 | 0.00 | 0.00 | ||
| 20260506184758 | 71 | 160 | 4.3 | 7.0 | 0.00 | 0.00 | 0.00 | ||
| 20260506184357 | 71 | 176 | 6.1 | 11.3 | 0.00 | 0.00 | 0.00 | ||
| 20260506183954 | 71 | 183 | 7.8 | 10.4 | 0.00 | 0.00 | 0.00 | ||
| 20260506183553 | 71 | 177 | 6.1 | 9.6 | 0.00 | 0.00 | 0.00 | ||
| 20260506183151 | 71 | 170 | 9.6 | 15.6 | 0.00 | 0.00 | 0.00 | ||
| 20260506182750 | 71 | 160 | 4.3 | 6.1 | 0.00 | 0.00 | 0.00 | ||
| 20260506182349 | 71 | 165 | 7.0 | 10.4 | 0.00 | 0.00 | 0.00 | ||
| 20260506181946 | 72 | 159 | 8.7 | 15.6 | 0.00 | 0.00 | 0.00 | ||
| 20260506181538 | 72 | 159 | 7.8 | 11.3 | 0.00 | 0.00 | 0.00 | ||
| 20260506181136 | 72 | 169 | 13.0 | 19.1 | 0.00 | 0.00 | 0.00 | ||
| 20260506180735 | 72 | 153 | 10.4 | 15.6 | 0.00 | 0.00 | 0.00 | ||
| 20260506180333 | 72 | 163 | 7.8 | 13.0 | 0.00 | 0.00 | 0.00 | ||
| 20260506175931 | 72 | 164 | 12.2 | 22.6 | 0.00 | 0.00 | 0.00 | ||
| 20260506175530 | 72 | 158 | 10.4 | 16.5 | 0.00 | 0.00 | 0.00 | ||
| 20260506175129 | 73 | 168 | 9.6 | 16.5 | 0.00 | 0.00 | 0.00 | ||
| 20260506174726 | 73 | 173 | 7.8 | 11.3 | 0.00 | 0.00 | 0.00 | ||
| 20260506174325 | 73 | 158 | 7.0 | 9.6 | 0.00 | 0.00 | 0.00 | ||
| 20260506173924 | 73 | 155 | 6.1 | 8.7 | 0.00 | 0.00 | 0.00 | ||
| 20260506173516 | 73 | 169 | 8.7 | 10.4 | 0.00 | 0.00 | 0.00 | ||
| 20260506173113 | 73 | 176 | 7.0 | 13.9 | 0.00 | 0.00 | 0.00 | ||
| 20260506172712 | 73 | 181 | 7.8 | 11.3 | 0.00 | 0.00 | 0.00 | ||
| 20260506172311 | 74 | 169 | 10.4 | 16.5 | 0.00 | 0.00 | 0.00 | ||
| 20260506171909 | 74 | 175 | 7.8 | 12.2 | 0.00 | 0.00 | 0.00 | ||
| 20260506171508 | 74 | 168 | 8.7 | 12.2 | 0.00 | 0.00 | 0.00 | ||
| 20260506171105 | 74 | 148 | 9.6 | 15.6 | 0.00 | 0.00 | 0.00 | ||
| 20260506170704 | 74 | 161 | 8.7 | 11.3 | 0.00 | 0.00 | 0.00 | ||
| 20260506170303 | 74 | 166 | 8.7 | 15.6 | 0.00 | 0.00 | 0.00 | ||
| 20260506165901 | 74 | 158 | 7.8 | 10.4 | 0.00 | 0.00 | 0.00 | ||
| 20260506165452 | 74 | 177 | 11.3 | 14.8 | 0.00 | 0.00 | 0.00 | ||
| 20260506165050 | 74 | 172 | 11.3 | 15.6 | 0.00 | 0.00 | 0.00 | ||
| 20260506164649 | 74 | 177 | 11.3 | 14.8 | 0.00 | 0.00 | 0.00 | ||
| 20260506164248 | 74 | 178 | 14.8 | 20.0 | 0.00 | 0.00 | 0.00 | ||
| 20260506163845 | 75 | 185 | 11.3 | 16.5 | 0.00 | 0.00 | 0.00 | ||
| 20260506163444 | 76 | 187 | 10.4 | 13.9 | 0.00 | 0.00 | 0.00 | ||
| 20260506163042 | 76 | 181 | 13.0 | 20.0 | 0.00 | 0.00 | 0.00 | ||
| 20260506162641 | 76 | 175 | 10.4 | 16.5 | 0.00 | 0.00 | 0.00 | ||
| 20260506162239 | 75 | 170 | 8.7 | 13.9 | 0.00 | 0.00 | 0.00 | ||
| 20260506161837 | 76 | 157 | 10.4 | 13.9 | 0.00 | 0.00 | 0.00 | ||
| 20260506161429 | 75 | 168 | 11.3 | 16.5 | 0.00 | 0.00 | 0.00 | ||
| 20260506161028 | 75 | 178 | 13.0 | 17.4 | 0.00 | 0.00 | 0.00 | ||
| 20260506160627 | 75 | 177 | 13.9 | 20.0 | 0.00 | 0.00 | 0.00 | ||
| 20260506160225 | 75 | 160 | 12.2 | 20.9 | 0.00 | 0.00 | 0.00 | ||
| 20260506155823 | 75 | 178 | 12.2 | 18.2 | 0.00 | 0.00 | 0.00 | ||
| 20260506155422 | 77 | 165 | 11.3 | 16.5 | 0.00 | 0.00 | 0.00 | ||
| 20260506155020 | 78 | 140 | 9.6 | 12.2 | 0.00 | 0.00 | 0.00 | ||
| 20260506154618 | 79 | 164 | 10.4 | 16.5 | 0.00 | 0.00 | 0.00 | ||
| 20260506154217 | 79 | 166 | 6.1 | 8.7 | 0.00 | 0.00 | 0.00 | ||
| 20260506153815 | 77 | 202 | 8.7 | 12.2 | 0.00 | 0.00 | 0.00 | ||
| 20260506153407 | 77 | 175 | 11.3 | 14.8 | 0.00 | 0.00 | 0.00 | ||
| 20260506153004 | 78 | 180 | 12.2 | 14.8 | 0.00 | 0.00 | 0.00 | ||
| 20260506152603 | 79 | 178 | 9.6 | 15.6 | 0.00 | 0.00 | 0.00 | ||
| 20260506152202 | 78 | 170 | 8.7 | 12.2 | 0.00 | 0.00 | 0.00 | ||
| 20260506151800 | 77 | 177 | 9.6 | 13.0 | 0.00 | 0.00 | 0.00 | ||
| 20260506151358 | 77 | 178 | 9.6 | 14.8 | 0.00 | 0.00 | 0.00 | ||
| 20260506150956 | 77 | 180 | 11.3 | 17.4 | 0.00 | 0.00 | 0.00 | ||
| 20260506150555 | 77 | 203 | 10.4 | 15.6 | 0.00 | 0.00 | 0.00 | ||
| 20260506150154 | 77 | 188 | 8.7 | 13.9 | 0.00 | 0.00 | 0.00 | ||
| 20260506145752 | 77 | 185 | 10.4 | 16.5 | 0.00 | 0.00 | 0.00 | ||
| 20260506145343 | 78 | 155 | 7.8 | 12.2 | 0.00 | 0.00 | 0.00 | ||
| 20260506144941 | 78 | 173 | 7.8 | 12.2 | 0.00 | 0.00 | 0.00 | ||
| 20260506144540 | 79 | 186 | 7.0 | 9.6 | 0.00 | 0.00 | 0.00 | ||
| 20260506144140 | 77 | 208 | 7.8 | 13.9 | 0.00 | 0.00 | 0.00 | ||
| 20260506143737 | 78 | 193 | 7.0 | 10.4 | 0.00 | 0.00 | 0.00 | ||
| 20260506143336 | 78 | 201 | 7.8 | 13.9 | 0.00 | 0.00 | 0.00 | ||
| 20260506142934 | 79 | 194 | 5.2 | 8.7 | 0.00 | 0.00 | 0.00 | ||
| 20260506142533 | 78 | 207 | 9.6 | 13.0 | 0.00 | 0.00 | 0.00 | ||
| 20260506142131 | 79 | 248 | 3.5 | 7.0 | 0.00 | 0.00 | 0.00 | ||
| 20260506141729 | 78 | 225 | 6.1 | 7.8 | 0.00 | 0.00 | 0.00 | ||
| 20260506141321 | 77 | 214 | 6.1 | 8.7 | 0.00 | 0.00 | 0.00 | ||
| 20260506140919 | 78 | 202 | 3.5 | 7.8 | 0.00 | 0.00 | 0.00 | ||
| 20260506140517 | 76 | 216 | 7.0 | 11.3 | 0.00 | 0.00 | 0.00 | ||
| 20260506140116 | 76 | 223 | 7.0 | 8.7 | 0.00 | 0.00 | 0.00 | ||
| 20260506135714 | 77 | 217 | 6.1 | 10.4 | 0.00 | 0.00 | 0.00 | ||
| 20260506135313 | 77 | 219 | 5.2 | 7.0 | 0.00 | 0.00 | 0.00 | ||
| 20260506134911 | 77 | 207 | 7.0 | 10.4 | 0.00 | 0.00 | 0.00 | ||
| 20260506134509 | 77 | 186 | 8.7 | 11.3 | 0.00 | 0.00 | 0.00 | ||
| 20260506134108 | 76 | 195 | 7.0 | 12.2 | 0.00 | 0.00 | 0.00 | ||
| 20260506133706 | 76 | 201 | 7.0 | 8.7 | 0.00 | 0.00 | 0.00 | ||
| 20260506133258 | 76 | 200 | 7.8 | 11.3 | 0.00 | 0.00 | 0.00 | ||
| 20260506132855 | 77 | 212 | 5.2 | 8.7 | 0.00 | 0.00 | 0.00 | ||
| 20260506132454 | 77 | 213 | 7.8 | 13.0 | 0.00 | 0.00 | 0.00 | ||
| 20260506132053 | 77 | 236 | 5.2 | 8.7 | 0.00 | 0.00 | 0.00 | ||
| 20260506131652 | 77 | 223 | 6.1 | 8.7 | 0.00 | 0.00 | 0.00 | ||
| 20260506131249 | 79 | 205 | 5.2 | 9.6 | 0.00 | 0.00 | 0.00 | ||
| 20260506130847 | 78 | 212 | 7.0 | 11.3 | 0.00 | 0.00 | 0.00 | ||
| 20260506130447 | 78 | 255 | 6.1 | 8.7 | 0.00 | 0.00 | 0.00 | ||
| 20260506130046 | 78 | 212 | 6.1 | 8.7 | 0.00 | 0.00 | 0.00 | ||
| 20260506125643 | 79 | 148 | 3.5 | 6.1 | 0.00 | 0.00 | 0.00 | ||
| 20260506125235 | 79 | 136 | 5.2 | 7.0 | 0.00 | 0.00 | 0.00 | ||
| 20260506124833 | 81 | 146 | 5.2 | 8.7 | 0.00 | 0.00 | 0.00 | ||
| 20260506124432 | 81 | 189 | 2.6 | 4.3 | 0.00 | 0.00 | 0.00 | ||
| 20260506124031 | 79 | 200 | 2.6 | 5.2 | 0.00 | 0.00 | 0.00 | ||
| 20260506123628 | 79 | 180 | 3.5 | 6.1 | 0.00 | 0.00 | 0.00 | ||
| 20260506123227 | 77 | 201 | 4.3 | 7.8 | 0.00 | 0.00 | 0.00 | ||
| 20260506122825 | 76 | 203 | 4.3 | 8.7 | 0.00 | 0.00 | 0.00 | ||
| 20260506122424 | 77 | 215 | 7.0 | 8.7 | 0.00 | 0.00 | 0.00 | ||
| 20260506122022 | 77 | 224 | 5.2 | 7.8 | 0.00 | 0.00 | 0.00 | ||
| 20260506121620 | 76 | 217 | 7.0 | 9.6 | 0.00 | 0.00 | 0.00 | ||
| 20260506121212 | 76 | 205 | 7.8 | 12.2 | 0.00 | 0.00 | 0.00 | ||
| 20260506120810 | 76 | 219 | 7.0 | 10.4 | 0.00 | 0.00 | 0.00 | ||
| 20260506120408 | 76 | 206 | 7.0 | 11.3 | 0.00 | 0.00 | 0.00 | ||
| 20260506120007 | 76 | 220 | 7.0 | 9.6 | 0.00 | 0.00 | 0.00 | ||
| 20260506115605 | 77 | 228 | 6.1 | 8.7 | 0.00 | 0.00 | 0.00 | ||
| 20260506115204 | 77 | 233 | 9.6 | 13.0 | 0.00 | 0.00 | 0.00 | ||
| 20260506114801 | 77 | 225 | 4.3 | 7.0 | 0.00 | 0.00 | 0.00 | ||
| 20260506114400 | 77 | 213 | 7.0 | 11.3 | 0.00 | 0.00 | 0.00 | ||
| 20260506113959 | 77 | 219 | 7.0 | 11.3 | 0.00 | 0.00 | 0.00 | ||
| 20260506113557 | 77 | 247 | 5.2 | 7.8 | 0.00 | 0.00 | 0.00 | ||
| 20260506113149 | 76 | 230 | 7.8 | 12.2 | 0.00 | 0.00 | 0.00 | ||
| 20260506112746 | 77 | 233 | 7.8 | 12.2 | 0.00 | 0.00 | 0.00 | ||
| 20260506112345 | 77 | 232 | 6.1 | 12.2 | 0.00 | 0.00 | 0.00 | ||
| 20260506111944 | 76 | 273 | 7.8 | 13.9 | 0.00 | 0.00 | 0.00 | ||
| 20260506111542 | 77 | 283 | 7.8 | 15.6 | 0.00 | 0.00 | 0.00 | ||
| 20260506111140 | 77 | 263 | 6.1 | 10.4 | 0.00 | 0.00 | 0.00 | ||
| 20260506110738 | 76 | 251 | 7.0 | 11.3 | 0.00 | 0.00 | 0.00 | ||
| 20260506110337 | 77 | 237 | 6.1 | 7.8 | 0.00 | 0.00 | 0.00 | ||
| 20260506105936 | 75 | 227 | 7.8 | 12.2 | 0.00 | 0.00 | 0.00 | ||
| 20260506105533 | 76 | 252 | 2.6 | 4.3 | 0.00 | 0.00 | 0.00 | ||
| 20260506105125 | 76 | 228 | 6.1 | 11.3 | 0.00 | 0.00 | 0.00 | ||
| 20260506104723 | 75 | 236 | 6.1 | 8.7 | 0.00 | 0.00 | 0.00 | ||
| 20260506104322 | 75 | 231 | 7.0 | 10.4 | 0.00 | 0.00 | 0.00 | ||
| 20260506103920 | 74 | 255 | 7.0 | 8.7 | 0.00 | 0.00 | 0.00 | ||
| 20260506103518 | 75 | 227 | 3.5 | 6.1 | 0.00 | 0.00 | 0.00 | ||
| 20260506103117 | 75 | 222 | 6.1 | 11.3 | 0.00 | 0.00 | 0.00 | ||
| 20260506102716 | 75 | 249 | 4.3 | 7.8 | 0.00 | 0.00 | 0.00 | ||
| 20260506102315 | 74 | 282 | 7.0 | 8.7 | 0.00 | 0.00 | 0.00 | ||
| 20260506101912 | 76 | 257 | 3.5 | 7.0 | 0.00 | 0.00 | 0.00 | ||
| 20260506101511 | 75 | 250 | 5.2 | 8.7 | 0.00 | 0.00 | 0.00 | ||
| 20260506101103 | 75 | 267 | 5.2 | 7.8 | 0.00 | 0.00 | 0.00 | ||
| 20260506100701 | 75 | 258 | 7.0 | 8.7 | 0.00 | 0.00 | 0.00 | ||
| 20260506100259 | 76 | 279 | 6.1 | 10.4 | 0.00 | 0.00 | 0.00 | ||
| 20260506095858 | 75 | 236 | 4.3 | 7.8 | 0.00 | 0.00 | 0.00 | ||
| 20260506095456 | 74 | 233 | 6.1 | 10.4 | 0.00 | 0.00 | 0.00 | ||
| 20260506095055 | 75 | 211 | 6.1 | 9.6 | 0.00 | 0.00 | 0.00 | ||
| 20260506094652 | 75 | 241 | 5.2 | 7.8 | 0.00 | 0.00 | 0.00 | ||
| 20260506094251 | 75 | 266 | 5.2 | 10.4 | 0.00 | 0.00 | 0.00 | ||
| 20260506093850 | 77 | 255 | 4.3 | 7.0 | 0.00 | 0.00 | 0.00 | ||
| 20260506093448 | 74 | 256 | 7.8 | 12.2 | 0.00 | 0.00 | 0.00 | ||
| 20260506093039 | 74 | 270 | 7.0 | 8.7 | 0.00 | 0.00 | 0.00 | ||
| 20260506092637 | 73 | 269 | 5.2 | 9.6 | 0.00 | 0.00 | 0.00 | ||
| 20260506092236 | 73 | 212 | 6.1 | 9.6 | 0.00 | 0.00 | 0.00 | ||
| 20260506091835 | 74 | 223 | 6.1 | 8.7 | 0.00 | 0.00 | 0.00 | ||
| 20260506091433 | 74 | 271 | 7.8 | 11.3 | 0.00 | 0.00 | 0.00 | ||
| 20260506091031 | 74 | 256 | 7.0 | 11.3 | 0.00 | 0.00 | 0.00 | ||
| 20260506090629 | 74 | 250 | 5.2 | 9.6 | 0.00 | 0.00 | 0.00 | ||
| 20260506090228 | 73 | 243 | 7.8 | 12.2 | 0.00 | 0.00 | 0.00 | ||
| 20260506085827 | 73 | 211 | 6.1 | 12.2 | 0.00 | 0.00 | 0.00 | ||
| 20260506085423 | 73 | 211 | 6.1 | 9.6 | 0.00 | 0.00 | 0.00 | ||
| 20260506085016 | 73 | 233 | 7.0 | 11.3 | 0.00 | 0.00 | 0.00 | ||
| 20260506084614 | 73 | 277 | 7.0 | 9.6 | 0.00 | 0.00 | 0.00 | ||
| 20260506084212 | 72 | 255 | 7.8 | 13.9 | 0.00 | 0.00 | 0.00 | ||
| 20260506083810 | 72 | 284 | 6.1 | 8.7 | 0.00 | 0.00 | 0.00 | ||
| 20260506083408 | 72 | 256 | 5.2 | 10.4 | 0.00 | 0.00 | 0.00 | ||
| 20260506083007 | 72 | 252 | 7.0 | 12.2 | 0.00 | 0.00 | 0.00 | ||
| 20260506082605 | 73 | 246 | 6.1 | 12.2 | 0.00 | 0.00 | 0.00 | ||
| 20260506082203 | 73 | 206 | 3.5 | 5.2 | 0.00 | 0.00 | 0.00 | ||
| 20260506081802 | 72 | 236 | 5.2 | 7.0 | 0.00 | 0.00 | 0.00 | ||
| 20260506081400 | 71 | 242 | 7.8 | 11.3 | 0.00 | 0.00 | 0.00 | ||
| 20260506080952 | 71 | 258 | 6.1 | 7.8 | 0.00 | 0.00 | 0.00 | ||
| 20260506080550 | 72 | 233 | 5.2 | 10.4 | 0.00 | 0.00 | 0.00 | ||
| 20260506080148 | 71 | 200 | 7.0 | 12.2 | 0.00 | 0.00 | 0.00 | ||
| 20260506073337 | 70 | 235 | 7.0 | 9.6 | 0.00 | 0.00 | 0.00 | ||
| 20260506072928 | 70 | 239 | 7.8 | 13.0 | 0.00 | 0.00 | 0.00 | ||
| 20260506072526 | 71 | 213 | 4.3 | 6.1 | 0.00 | 0.00 | 0.00 | ||
| 20260506072125 | 71 | 209 | 4.3 | 8.7 | 0.00 | 0.00 | 0.00 | ||
| 20260506071724 | 70 | 211 | 6.1 | 10.4 | 0.00 | 0.00 | 0.00 | ||
| 20260506071321 | 70 | 208 | 9.6 | 13.9 | 0.00 | 0.00 | 0.00 | ||
| 20260506070920 | 74 | 225 | 6.1 | 10.4 | 0.00 | 0.00 | 0.00 | ||
| 20260506070518 | 76 | 231 | 7.8 | 13.0 | 0.00 | 0.00 | 0.00 | ||
| 20260506070117 | 73 | 229 | 6.1 | 8.7 | 0.00 | 0.00 | 0.00 | ||
| 20260506062456 | 69 | 200 | 5.2 | 7.8 | 0.00 | 0.00 | 0.00 | ||
| 20260506062054 | 70 | 209 | 5.2 | 8.7 | 0.00 | 0.00 | 0.00 | ||
| 20260506061653 | 70 | 168 | 6.1 | 8.7 | 0.00 | 0.00 | 0.00 | ||
| 20260506061251 | 70 | 153 | 3.5 | 7.0 | 0.00 | 0.00 | 0.00 | ||
| 20260506060843 | 69 | 146 | 7.0 | 9.6 | 0.00 | 0.00 | 0.00 | ||
| 20260506060440 | 69 | 142 | 7.0 | 12.2 | 0.00 | 0.00 | 0.00 | ||
| 20260506051213 | 66 | 152 | 7.8 | 14.8 | 0.00 | 0.00 | 0.00 | ||
| 20260506050812 | 66 | 157 | 7.0 | 9.6 | 0.00 | 0.00 | 0.00 | ||
| 20260506050410 | 65 | 163 | 8.7 | 13.9 | 0.00 | 0.00 | 0.00 |